TimeMDT,TemperatureF,Dew PointF,Humidity,Sea Level PressureIn,VisibilityMPH,Wind Direction,Wind SpeedMPH,Gust SpeedMPH,PrecipitationIn,Events,Conditions,WindDirDegrees,DateUTC
12:53 AM,71.1,41.0,34,29.82,10.0,West,9.2,-,N/A,,Clear,270,2013-08-20 06:53:00
1:53 AM,70.0,41.0,35,29.81,10.0,West,10.4,-,N/A,,Clear,280,2013-08-20 07:53:00
2:53 AM,72.0,41.0,33,29.79,10.0,West,5.8,-,N/A,,Clear,280,2013-08-20 08:53:00
3:53 AM,71.1,39.0,31,29.79,10.0,West,5.8,-,N/A,,Scattered Clouds,270,2013-08-20 09:53:00
4:53 AM,73.0,35.1,25,29.79,10.0,West,8.1,-,N/A,,Clear,260,2013-08-20 10:53:00
5:53 AM,71.1,33.1,25,29.81,10.0,West,6.9,-,N/A,,Clear,260,2013-08-20 11:53:00
6:53 AM,75.0,35.1,23,29.83,10.0,NNW,11.5,-,N/A,,Clear,340,2013-08-20 12:53:00
7:53 AM,77.0,36.0,23,29.85,10.0,NNW,11.5,-,N/A,,Clear,330,2013-08-20 13:53:00
8:53 AM,75.9,35.1,23,29.87,10.0,NNW,19.6,26.5,N/A,,Clear,330,2013-08-20 14:53:00
9:53 AM,80.1,36.0,20,29.89,10.0,North,23.0,26.5,N/A,,Clear,360,2013-08-20 15:53:00
10:53 AM,82.9,35.1,18,29.89,10.0,North,11.5,-,N/A,,Clear,350,2013-08-20 16:53:00
11:53 AM,84.9,32.0,15,29.89,10.0,NNW,13.8,19.6,N/A,,Clear,340,2013-08-20 17:53:00
12:53 PM,84.9,32.0,15,29.88,10.0,NNW,10.4,16.1,N/A,,Clear,340,2013-08-20 18:53:00
1:53 PM,87.1,33.1,15,29.88,10.0,NNW,8.1,-,N/A,,Clear,330,2013-08-20 19:53:00
2:53 PM,84.9,34.0,16,29.86,10.0,NNE,4.6,-,N/A,,Clear,30,2013-08-20 20:53:00
3:53 PM,88.0,34.0,15,29.84,10.0,SSE,5.8,-,N/A,,Clear,150,2013-08-20 21:53:00
4:53 PM,88.0,33.1,14,29.82,10.0,ESE,4.6,-,N/A,,Clear,110,2013-08-20 22:53:00
5:53 PM,88.0,34.0,15,29.81,10.0,SSE,5.8,-,N/A,,Clear,160,2013-08-20 23:53:00
6:53 PM,86.0,35.1,16,29.81,10.0,East,4.6,-,N/A,,Clear,90,2013-08-21 00:53:00
7:53 PM,81.0,36.0,20,29.83,10.0,East,3.5,-,N/A,,Clear,90,2013-08-21 01:53:00
8:53 PM,73.9,37.9,27,29.87,10.0,WSW,5.8,-,N/A,,Clear,240,2013-08-21 02:53:00
9:53 PM,75.0,37.9,26,29.88,10.0,Calm,Calm,-,N/A,,Clear,0,2013-08-21 03:53:00
10:53 PM,73.9,39.0,28,29.87,10.0,SSW,5.8,-,N/A,,Clear,210,2013-08-21 04:53:00
11:53 PM,75.0,41.0,29,29.86,10.0,South,8.1,-,N/A,,Clear,190,2013-08-21 05:53:00